TimeCDT,TemperatureF,Dew PointF,Humidity,Sea Level PressureIn,VisibilityMPH,Wind Direction,Wind SpeedMPH,Gust SpeedMPH,PrecipitationIn,Events,Conditions,WindDirDegrees,DateUTC
12:44 AM,64.4,64.4,100,30.19,2.5,Calm,Calm,-,N/A,,Clear,0,2013-08-27 05:44:00
12:56 AM,63.9,63.9,100,30.19,2.5,Calm,Calm,-,N/A,,Clear,0,2013-08-27 05:56:00
1:56 AM,63.9,63.9,100,30.18,2.0,Calm,Calm,-,N/A,,Clear,0,2013-08-27 06:56:00
2:09 AM,64.4,64.4,100,30.18,4.0,Calm,Calm,-,N/A,,Clear,0,2013-08-27 07:09:00
2:56 AM,63.9,63.9,100,30.17,3.0,Calm,Calm,-,N/A,,Clear,0,2013-08-27 07:56:00
3:05 AM,64.4,64.4,100,30.17,2.5,Calm,Calm,-,N/A,,Clear,0,2013-08-27 08:05:00
3:19 AM,62.6,62.6,100,30.17,1.8,Calm,Calm,-,N/A,,Clear,0,2013-08-27 08:19:00
3:28 AM,62.6,62.6,100,30.17,2.0,Calm,Calm,-,N/A,,Clear,0,2013-08-27 08:28:00
3:36 AM,62.6,62.6,100,30.17,1.8,Calm,Calm,-,N/A,,Clear,0,2013-08-27 08:36:00
3:56 AM,63.0,63.0,100,30.17,3.0,Calm,Calm,-,N/A,,Clear,0,2013-08-27 08:56:00
4:06 AM,62.6,62.6,100,30.17,2.5,Calm,Calm,-,N/A,,Clear,0,2013-08-27 09:06:00
4:16 AM,62.6,62.6,100,30.17,3.0,Calm,Calm,-,N/A,,Clear,0,2013-08-27 09:16:00
4:30 AM,62.6,62.6,100,30.17,1.8,Calm,Calm,-,N/A,,Clear,0,2013-08-27 09:30:00
4:44 AM,62.6,62.6,100,30.17,1.2,Calm,Calm,-,N/A,,Clear,0,2013-08-27 09:44:00
4:49 AM,62.6,62.6,100,30.17,2.0,Calm,Calm,-,N/A,,Clear,0,2013-08-27 09:49:00
4:56 AM,61.9,61.9,100,30.17,2.5,Calm,Calm,-,N/A,,Clear,0,2013-08-27 09:56:00
5:06 AM,62.6,62.6,100,30.17,4.0,Calm,Calm,-,N/A,,Clear,0,2013-08-27 10:06:00
5:35 AM,60.8,60.8,100,30.17,2.0,Calm,Calm,-,N/A,,Clear,0,2013-08-27 10:35:00
5:56 AM,61.9,61.9,100,30.17,2.0,Calm,Calm,-,N/A,,Clear,0,2013-08-27 10:56:00
6:20 AM,62.6,62.6,100,30.17,4.0,Calm,Calm,-,N/A,,Mostly Cloudy,0,2013-08-27 11:20:00
6:56 AM,63.9,63.9,100,30.18,5.0,Calm,Calm,-,N/A,,Partly Cloudy,0,2013-08-27 11:56:00
7:56 AM,68.0,68.0,100,30.19,9.0,Calm,Calm,-,N/A,,Mostly Cloudy,0,2013-08-27 12:56:00
8:16 AM,69.8,69.8,100,30.19,10.0,Calm,Calm,-,N/A,,Mostly Cloudy,0,2013-08-27 13:16:00
8:56 AM,72.9,68.9,87,30.19,10.0,Calm,Calm,-,N/A,,Scattered Clouds,0,2013-08-27 13:56:00
9:56 AM,77.9,68.0,71,30.18,10.0,West,4.6,-,N/A,,Clear,270,2013-08-27 14:56:00
10:56 AM,81.0,70.0,69,30.18,10.0,West,5.8,-,N/A,,Clear,260,2013-08-27 15:56:00
11:56 AM,82.9,70.0,65,30.17,10.0,Calm,Calm,-,N/A,,Partly Cloudy,0,2013-08-27 16:56:00
12:56 PM,82.9,70.9,67,30.14,10.0,WNW,6.9,-,N/A,,Partly Cloudy,300,2013-08-27 17:56:00
1:56 PM,86.0,70.9,60,30.12,10.0,Variable,6.9,-,N/A,,Partly Cloudy,0,2013-08-27 18:56:00
2:56 PM,83.8,68.9,61,30.10,10.0,WSW,6.9,-,N/A,,Partly Cloudy,250,2013-08-27 19:56:00
3:56 PM,83.8,68.9,61,30.09,10.0,WSW,3.5,-,N/A,,Clear,240,2013-08-27 20:56:00
4:56 PM,82.9,70.0,65,30.08,10.0,West,6.9,-,N/A,,Clear,260,2013-08-27 21:56:00
5:56 PM,81.9,68.9,65,30.08,10.0,WSW,4.6,-,N/A,,Clear,250,2013-08-27 22:56:00
6:56 PM,77.9,70.9,79,30.09,10.0,Calm,Calm,-,N/A,,Clear,0,2013-08-27 23:56:00
7:56 PM,73.9,72.0,93,30.08,8.0,Calm,Calm,-,N/A,,Clear,0,2013-08-28 00:56:00
8:56 PM,70.0,70.0,100,30.10,4.0,Calm,Calm,-,N/A,,Clear,0,2013-08-28 01:56:00
9:56 PM,68.9,68.9,100,30.10,2.5,Calm,Calm,-,N/A,,Clear,0,2013-08-28 02:56:00
10:14 PM,69.8,69.8,100,30.10,3.0,Calm,Calm,-,N/A,,Clear,0,2013-08-28 03:14:00
10:39 PM,68.0,68.0,100,30.10,2.5,Calm,Calm,-,N/A,,Clear,0,2013-08-28 03:39:00
10:56 PM,68.0,68.0,100,30.09,2.0,Calm,Calm,-,N/A,,Clear,0,2013-08-28 03:56:00
11:30 PM,68.0,68.0,100,30.10,1.2,Calm,Calm,-,N/A,,Clear,0,2013-08-28 04:30:00
11:39 PM,68.0,68.0,100,30.10,1.0,Calm,Calm,-,N/A,,Clear,0,2013-08-28 04:39:00
11:45 PM,68.0,68.0,100,30.10,1.5,Calm,Calm,-,N/A,,Clear,0,2013-08-28 04:45:00
11:56 PM,66.9,66.9,100,30.09,1.5,Calm,Calm,-,N/A,,Clear,0,2013-08-28 04:56:00